Wind_Speed
12 12 12 12 13 13 13 14 13 14 14 14 14 14 14 14 14 14 14 13 13 14 13 14 14 15 15 15 15 16 19 21 23 16 11 15 16 12 10 7 9 18 15 10 8 6 6 4 5 5 5 3 2 1 2 3 2 2 3 2 3 4 5 5 5 5 3 6 7 9 7 6 7 6 3 6 9 7 8 6 3 6 8 10 16 25 29 27
13 13 13 13 13 13 13 13 13 13 13 14 14 14 15 14 15 14 15 14 14 14 13 14 14 15 15 15 14 16 20 22 20 17 13 11 11 8 10 8 10 19 17 12 10 8 8 4 5 5 4 2 1 2 2 3 3 3 3 2 5 5 5 4 4 4 4 7 9 12 6 5 6 5 3 3 4 4 9 6 5 9 11 12 17 23 25 27
12 12 12 12 13 13 13 13 13 13 13 14 14 14 15 14 15 15 15 14 14 14 14 14 14 14 15 14 13 16 19 17 11 10 6 9 9 7 12 15 12 16 14 11 12 12 8 6 9 6 3 1 1 2 2 2 3 3 3 3 6 5 5 5 5 6 7 9 9 12 7 6 7 4 1 4 3 2 5 6 7 9 10 12 13 17 21 24
12 12 12 12 12 12 12 13 13 14 13 14 14 14 14 14 14 14 15 14 14 14 14 14 13 14 14 13 13 15 14 8 4 4 2 8 13 6 15 19 12 13 10 5 8 12 7 6 9 5 3 2 2 1 2 3 2 2 4 6 6 3 6 7 5 8 9 9 7 9 9 10 8 0 3 7 6 1 4 7 11 14 15 15 15 15 17 19
12 13 13 13 12 12 13 13 13 13 13 14 14 14 14 15 14 14 14 14 14 14 14 14 14 14 13 12 11 11 8 3 3 4 3 8 14 5 17 20 13 13 10 6 7 11 7 4 6 3 2 2 2 1 3 4 2 1 4 8 6 3 7 7 4 8 9 7 7 8 8 8 4 2 5 8 6 4 7 8 11 17 19 18 17 16 16 16
13 13 13 13 13 13 13 13 14 13 13 14 14 14 14 14 14 14 14 14 14 14 14 13 14 14 13 11 7 5 2 1 7 7 8 11 11 3 16 20 14 13 11 9 8 9 6 3 4 3 2 1 3 4 4 3 3 2 5 6 6 5 7 7 6 9 8 7 9 8 6 6 3 0 5 7 6 4 3 6 9 14 17 17 16 16 16 16
13 13 13 14 13 14 14 14 14 14 14 14 14 14 14 14 14 14 14 13 13 13 13 13 13 13 11 9 3 2 2 6 13 10 12 11 7 2 17 20 15 15 13 10 9 7 5 5 4 3 4 1 3 4 4 3 3 4 6 6 6 7 8 8 8 10 9 8 11 8 6 9 8 4 3 6 6 1 6 8 9 11 14 15 13 14 16 15
13 13 14 14 14 14 14 14 14 14 14 14 14 14 14 14 13 13 13 13 13 13 13 12 12 11 10 7 1 2 1 9 13 12 14 11 5 4 19 21 15 16 14 12 10 7 6 6 5 3 3 3 3 3 4 2 1 5 7 6 5 6 8 9 8 9 10 9 10 8 8 12 12 4 3 5 5 5 10 10 10 12 15 14 11 13 13 13
13 14 14 14 14 14 14 15 14 14 15 14 15 14 14 14 13 14 13 13 12 12 13 11 11 8 6 4 2 3 5 6 9 11 9 5 3 7 19 18 17 17 13 12 11 9 6 5 6 4 4 4 3 3 3 1 3 6 7 6 5 7 8 8 7 8 9 6 5 6 9 13 8 2 2 3 1 7 11 12 12 12 14 13 10 12 12 13
14 14 14 15 15 15 15 15 15 15 15 15 15 14 14 14 14 13 12 13 12 11 12 10 9 7 4 2 3 1 6 4 6 7 6 3 2 10 16 14 18 19 11 9 11 11 7 6 7 4 4 2 3 4 3 4 4 5 5 6 7 8 8 6 7 9 8 5 5 6 11 13 6 1 2 2 5 9 12 11 11 12 12 12 11 11 12 12
14 14 15 15 15 16 16 16 16 16 16 16 16 15 15 15 14 14 13 13 11 11 10 8 7 4 2 0 4 4 6 2 3 8 10 6 2 6 12 12 16 19 13 8 12 16 11 8 6 3 2 1 2 4 4 5 3 4 4 6 7 7 7 6 7 8 4 4 7 8 10 11 4 1 6 6 9 11 14 12 11 12 11 11 12 10 10 10
14 14 15 16 16 16 16 16 16 16 17 17 17 17 16 16 15 15 14 13 11 9 8 7 5 1 2 1 5 11 6 1 2 2 7 9 9 9 9 11 14 18 16 9 12 20 16 8 6 3 2 1 1 3 4 3 2 4 2 4 8 7 7 6 6 7 4 4 6 6 5 9 3 6 7 8 11 10 13 14 12 11 9 10 11 8 7 9
14 15 16 16 17 17 17 17 17 17 17 18 19 18 17 17 17 16 16 13 9 8 7 5 3 1 2 2 9 15 13 11 13 16 18 18 17 15 13 14 14 16 18 13 12 18 17 10 7 4 2 1 1 3 3 5 3 3 1 1 6 7 7 6 4 4 4 4 3 7 2 7 7 9 6 7 12 11 10 12 12 10 9 9 8 7 7 9
16 17 17 17 17 17 17 17 17 18 18 19 20 19 19 19 18 18 16 12 8 6 5 2 1 1 1 6 14 18 16 15 18 21 19 16 15 14 13 15 15 16 19 18 13 10 15 13 5 1 2 1 4 4 5 5 2 3 3 2 2 2 6 7 3 2 2 3 4 8 4 6 9 10 6 8 13 14 12 12 11 10 9 8 8 7 8 9
16 17 17 18 18 17 18 18 18 18 19 20 21 21 22 21 21 19 13 8 4 2 2 2 3 2 1 9 16 13 9 9 15 17 14 14 13 11 13 14 16 17 18 20 15 6 9 12 3 1 3 3 2 3 4 4 3 2 3 4 3 2 4 8 5 3 4 5 4 8 4 4 9 10 6 9 12 14 13 12 11 10 10 9 9 9 8 9
17 17 18 18 18 18 18 18 18 19 19 21 22 22 23 23 20 13 7 5 3 2 3 2 3 3 0 7 9 7 7 8 10 10 9 15 16 14 12 9 12 15 16 18 16 9 5 6 2 3 3 3 2 2 1 4 4 3 1 4 4 3 4 6 5 4 5 4 1 4 4 3 7 8 5 10 13 13 12 12 12 11 11 10 9 10 9 9
17 18 18 19 19 19 19 19 19 19 20 21 23 23 22 19 13 5 3 3 2 4 5 2 1 2 4 8 8 7 6 5 5 5 7 15 20 19 11 4 5 9 11 11 10 7 2 2 2 2 1 2 2 3 0 4 5 3 3 2 4 3 4 4 5 5 1 1 3 2 3 5 8 7 3 10 13 12 11 12 13 11 10 10 10 10 9 9
18 18 19 19 19 19 19 19 19 19 21 22 23 23 17 10 5 3 8 8 7 5 3 1 1 1 4 6 5 5 4 3 6 6 6 14 20 21 13 5 3 4 4 4 3 3 2 1 1 1 2 1 3 4 3 5 3 1 1 1 3 3 4 5 4 4 5 2 3 4 4 7 10 10 4 10 13 12 12 12 12 12 11 10 9 10 9 7
18 19 19 20 20 20 20 20 19 20 22 23 23 17 7 4 6 7 8 8 5 3 1 2 4 2 3 6 5 6 9 11 12 9 8 14 17 17 12 6 2 5 3 1 2 3 3 1 0 2 3 3 4 5 6 6 4 3 2 3 3 4 6 7 4 4 6 6 6 5 6 8 10 12 5 9 12 12 13 11 10 10 9 9 8 8 7 6
18 19 20 20 20 21 20 20 20 21 22 23 20 10 2 3 4 3 2 2 5 5 4 5 7 6 9 10 7 7 12 12 7 5 5 12 14 9 5 3 1 2 3 3 3 2 4 3 5 5 4 5 6 7 6 4 1 1 3 2 5 5 8 9 4 4 5 5 7 6 7 9 10 14 8 8 12 13 13 10 9 9 9 9 8 7 8 9
19 20 20 20 20 20 21 21 21 21 20 17 13 6 1 2 3 3 3 4 9 11 11 10 11 12 15 15 9 6 8 6 5 6 7 8 13 9 2 3 3 3 3 4 3 1 3 6 7 5 6 6 6 6 5 3 1 1 3 4 5 5 8 9 5 7 5 1 6 6 6 9 11 14 9 7 13 13 15 13 11 12 10 8 8 10 11 11
19 19 20 20 20 21 21 22 22 19 13 8 6 2 1 2 4 7 4 4 10 12 13 15 13 15 19 20 18 7 3 5 8 10 6 6 9 7 4 4 5 5 3 1 1 1 2 6 6 4 6 5 3 2 4 3 3 3 2 2 5 4 5 7 5 6 3 2 5 7 5 10 13 14 10 8 13 12 15 17 16 15 12 10 11 12 14 13
19 19 20 19 20 21 21 23 21 10 5 7 6 2 3 8 12 11 2 2 10 8 10 12 11 11 15 15 14 8 4 6 6 9 4 8 6 6 6 6 6 5 2 3 4 4 4 6 7 6 5 4 3 3 2 2 2 3 3 2 5 3 2 5 4 4 4 1 6 8 5 9 11 10 9 6 10 10 13 18 17 12 11 11 13 13 15 16
19 20 20 20 21 20 21 23 11 0 7 14 10 6 9 14 15 9 2 1 7 5 7 13 10 9 13 9 10 13 6 6 6 8 7 10 5 4 6 6 6 5 4 6 7 6 8 7 4 6 6 6 5 5 4 3 3 3 5 6 5 4 4 7 5 5 6 4 5 4 5 6 6 7 8 2 6 9 11 14 11 5 8 11 12 12 13 14
19 20 20 20 20 21 23 16 1 2 15 13 5 9 14 15 15 5 2 1 5 5 5 8 5 7 9 6 12 13 4 4 7 8 8 12 8 4 4 4 4 6 6 7 7 6 10 7 5 6 5 6 6 6 5 6 4 4 6 9 9 8 9 10 7 4 5 5 4 1 4 6 6 6 7 2 5 7 8 12 9 7 10 12 12 11 12 11
19 19 19 19 19 23 19 5 2 13 15 4 4 12 11 13 14 2 3 4 3 5 3 1 3 5 7 6 9 8 3 4 10 13 9 12 13 6 3 2 1 5 6 5 4 3 6 4 6 6 6 6 6 6 5 8 4 5 6 10 12 11 10 10 7 1 1 5 4 3 3 5 7 6 7 3 5 7 7 9 8 8 10 12 11 11 11 11
19 18 18 17 18 20 11 4 12 15 5 1 9 12 9 13 11 2 3 5 3 4 1 1 2 4 5 7 10 8 2 3 5 11 11 12 11 5 5 4 2 4 4 3 1 3 4 5 4 6 5 5 5 6 6 10 6 5 6 9 10 9 9 9 6 5 4 4 3 3 4 2 6 6 5 4 6 5 5 7 7 7 10 12 12 11 10 12
19 18 17 17 16 14 9 10 14 8 2 6 12 11 10 12 6 3 4 3 3 2 2 1 1 4 2 7 12 6 3 3 3 5 11 15 11 5 6 7 6 7 4 5 4 4 3 5 7 6 5 4 6 7 8 11 6 9 7 9 8 8 8 7 6 5 3 1 5 5 2 1 5 6 5 5 7 6 5 8 8 9 12 13 12 11 10 11
18 18 17 17 17 13 8 9 10 6 6 11 12 11 12 9 3 4 4 1 3 2 1 1 1 1 2 5 9 6 2 2 2 2 6 12 10 5 5 7 7 7 4 6 7 5 2 6 7 6 5 5 8 9 8 13 8 8 5 5 4 3 3 3 5 4 0 0 6 7 2 2 5 5 5 6 5 2 3 5 7 11 12 12 12 12 11 11
19 19 17 16 16 11 6 10 12 7 7 10 11 12 10 5 4 4 1 3 3 2 1 2 4 6 4 2 5 6 4 2 1 3 4 3 5 3 1 2 5 3 1 1 5 6 3 3 4 5 5 6 8 8 8 15 13 3 3 3 2 2 2 1 2 3 2 2 8 8 6 5 4 4 2 2 3 4 5 4 7 11 11 11 11 11 12 11
21 20 18 15 14 9 5 7 6 3 7 10 12 11 6 3 4 3 3 4 3 3 4 4 6 9 6 3 4 5 4 3 2 4 4 2 3 3 1 2 2 2 2 3 4 6 6 3 3 4 6 6 6 6 4 10 10 3 3 2 1 3 3 3 4 3 2 5 8 7 5 8 4 4 2 3 6 6 8 8 12 14 12 12 12 10 11 10
22 20 18 15 12 10 8 5 3 4 7 9 9 6 4 3 1 2 3 4 3 3 4 6 8 10 10 6 4 4 3 3 1 3 5 4 5 6 4 4 4 1 2 4 3 5 6 5 4 4 5 6 5 5 3 1 4 5 3 4 2 2 2 1 3 0 2 6 6 3 2 5 5 5 4 7 8 7 8 8 13 16 14 13 12 11 10 9
21 19 15 12 10 12 11 6 5 6 6 5 4 4 6 3 2 4 3 3 1 3 4 5 10 11 9 6 3 4 4 2 1 1 2 4 5 6 5 4 5 4 2 4 3 2 4 5 4 3 4 4 7 4 2 0 3 6 5 5 5 2 1 1 4 2 2 5 4 2 1 2 3 3 5 9 8 6 5 5 9 13 13 12 11 10 9 8
19 16 12 8 9 11 9 3 2 2 2 2 3 5 4 2 3 3 2 2 3 4 5 6 11 11 5 3 4 2 2 1 0 2 2 2 4 5 5 3 4 4 2 2 2 3 2 4 3 5 3 2 6 8 7 5 5 5 5 6 5 4 4 2 4 3 4 4 3 4 0 1 1 3 6 7 5 3 6 7 8 9 10 10 9 9 8 8
16 12 10 8 7 7 3 5 5 2 1 3 5 5 3 3 3 1 1 3 3 5 8 9 8 5 4 4 5 4 1 1 1 2 3 3 4 4 4 5 6 5 4 3 2 2 3 5 7 6 4 2 3 6 6 6 3 3 2 5 3 4 5 2 3 4 3 1 2 3 0 1 3 2 6 6 5 8 9 9 10 9 8 9 9 8 9 7
14 10 7 5 3 1 5 10 8 4 3 5 5 2 3 3 2 2 1 3 2 5 9 9 4 2 4 4 5 7 4 1 1 2 1 3 3 4 3 3 6 7 6 4 3 1 2 5 7 4 4 4 6 5 3 3 3 2 2 3 3 4 7 3 2 1 1 1 1 1 1 2 2 1 7 9 7 8 7 7 8 8 7 9 8 8 8 7
16 11 4 2 3 6 8 10 9 5 3 6 4 2 3 3 3 2 1 3 3 4 4 4 3 2 3 4 5 7 6 3 1 0 1 1 1 3 3 1 2 6 8 5 1 3 2 4 6 5 6 8 5 3 1 1 3 4 2 5 2 3 5 3 1 2 3 2 2 1 1 2 1 0 5 7 7 6 5 3 6 7 5 5 5 6 7 7
16 9 3 2 6 11 11 10 8 3 4 5 2 2 2 2 2 2 2 4 3 3 2 1 2 1 2 4 4 6 4 2 1 1 1 1 2 2 1 1 2 1 4 5 2 2 1 2 7 5 5 7 4 2 2 6 1 4 4 3 3 2 1 1 2 1 1 2 2 2 2 2 2 3 4 3 3 2 3 4 1 5 4 3 3 3 4 4
10 3 3 1 8 13 12 11 5 3 5 3 0 2 2 3 4 3 4 3 2 2 1 2 2 1 3 3 3 4 3 2 1 1 1 1 2 1 1 1 1 4 3 5 4 1 1 1 6 5 3 4 5 3 1 5 5 2 2 1 1 3 4 2 2 3 4 3 2 0 2 2 4 4 4 3 3 2 4 1 1 4 6 5 5 6 6 5
3 2 2 1 10 15 13 8 3 5 3 1 2 3 2 3 3 4 5 4 2 2 3 3 2 2 4 3 2 3 3 2 1 1 1 1 2 2 1 2 2 1 2 4 4 1 2 2 3 6 5 3 3 0 4 4 1 2 1 0 3 1 3 2 1 2 3 4 3 3 1 4 4 3 3 3 2 2 5 6 3 2 4 6 5 6 5 6
2 3 2 1 12 17 11 5 3 2 2 1 2 3 3 2 3 4 5 4 3 3 4 4 3 3 3 3 2 3 3 2 1 1 1 1 2 2 2 3 4 2 0 4 2 1 1 1 1 4 5 3 3 3 1 5 7 5 2 1 1 2 4 3 1 1 2 3 4 5 3 5 4 1 1 1 2 3 1 4 5 3 3 5 7 8 6 5
3 3 1 4 15 17 8 4 1 1 2 2 2 3 3 3 3 3 4 3 2 3 2 2 3 2 3 2 2 3 2 2 2 1 1 2 2 2 3 1 3 3 2 0 1 2 2 3 2 2 3 4 6 4 3 1 8 9 4 2 1 2 3 4 3 2 1 2 1 3 2 4 3 1 3 4 5 7 7 4 3 4 5 6 7 8 7 7
3 1 0 9 17 12 5 2 3 2 1 3 2 2 3 2 2 2 3 2 1 1 1 1 2 1 1 2 2 3 2 1 2 2 1 2 1 2 4 4 2 3 3 1 1 1 2 3 1 3 3 4 6 5 5 4 3 7 3 3 3 1 1 4 5 3 3 2 2 3 1 3 1 2 3 5 7 9 9 8 6 5 6 7 7 6 7 7
2 1 0 7 10 4 2 1 2 2 3 3 3 3 3 2 1 2 3 2 2 1 1 1 2 1 1 1 1 3 2 1 2 3 1 1 2 3 4 5 4 4 2 2 2 1 0 0 1 0 2 4 6 6 5 5 3 3 1 2 1 1 1 2 1 3 2 3 4 5 2 4 2 3 3 5 7 8 8 8 7 6 6 7 6 6 7 7
1 0 1 0 1 1 1 3 3 2 3 2 3 4 4 3 3 2 3 3 3 1 0 2 3 1 2 2 2 3 3 1 1 2 2 2 3 4 5 5 4 4 2 2 3 3 2 2 2 3 3 3 2 2 3 3 3 2 1 2 3 5 6 1 1 3 1 3 3 5 4 3 4 5 4 5 7 9 9 9 9 7 7 6 7 7 8 8
2 1 1 3 4 3 1 1 4 3 2 0 1 3 3 3 4 3 2 1 3 3 1 2 3 1 2 4 3 4 4 3 2 3 3 4 3 3 5 5 5 4 3 7 6 3 4 2 2 4 4 4 5 5 5 3 1 1 1 3 4 3 5 5 4 2 2 2 1 2 4 6 8 8 7 7 8 9 9 9 10 8 6 7 8 8 7 8
2 1 2 1 2 3 2 2 2 2 1 2 2 2 2 2 4 4 2 1 4 4 2 2 4 3 3 3 2 2 4 4 4 3 3 4 3 3 6 5 6 6 4 6 6 3 5 3 4 3 3 2 1 3 3 2 3 1 3 5 5 4 5 7 4 0 2 4 1 5 4 8 9 8 9 8 8 8 9 8 8 8 7 7 10 10 9 9
1 1 2 3 1 0 0 1 1 2 1 2 2 1 2 3 3 3 3 3 3 4 2 3 6 5 4 3 2 1 4 3 4 3 3 5 4 5 6 5 5 7 5 4 4 3 5 1 2 1 4 7 7 5 4 5 4 5 6 7 6 6 7 7 2 2 4 4 4 4 4 5 5 8 9 8 8 8 9 8 7 7 8 8 11 12 10 9
2 1 1 1 2 3 3 1 2 3 2 1 1 1 1 2 3 3 3 2 4 5 2 2 6 6 5 4 3 2 1 1 1 3 2 4 5 3 4 4 4 6 5 4 3 2 4 1 1 1 3 7 9 7 5 7 5 5 7 7 7 6 6 6 2 3 5 3 3 6 8 4 4 6 7 8 9 9 8 7 6 7 8 9 11 11 10 10
1 1 1 2 2 0 1 1 3 3 3 2 2 2 1 1 2 4 2 2 1 4 3 2 5 6 2 3 4 2 3 4 3 2 1 2 3 3 2 2 3 5 4 3 2 2 3 1 1 1 3 5 7 6 5 6 5 5 7 9 10 8 5 5 3 3 4 4 4 7 8 4 4 5 8 10 10 9 9 7 7 6 6 9 10 10 10 11
0 2 2 4 2 3 2 2 3 3 2 3 1 2 2 2 2 3 3 1 3 2 1 1 5 4 2 3 3 2 6 5 6 7 5 3 2 1 1 2 2 5 3 2 1 2 3 2 1 3 3 2 5 4 4 4 4 6 7 10 11 7 3 2 2 2 1 5 8 6 4 2 2 5 9 10 10 12 10 7 6 5 4 7 10 10 9 9
3 1 1 4 2 3 2 2 3 3 1 2 2 2 2 3 4 3 2 3 2 2 3 4 3 1 3 4 4 5 7 7 7 6 5 5 6 5 4 5 5 3 2 2 1 1 3 3 1 2 3 1 3 3 3 3 3 2 4 7 7 5 3 3 3 5 4 3 7 4 3 3 3 6 9 9 10 11 9 6 5 5 4 6 9 9 8 6
Wind_Direction
347 348 347 346 345 344 343 342 342 341 342 340 338 337 334 335 333 332 329 325 323 320 320 319 317 317 317 320 321 321 318 312 310 301 264 276 292 271 241 259 212 177 163 156 148 131 128 151 189 170 144 142 163 178 173 168 130 86 106 145 217 232 227 194 199 200 236 286 309 316 344 3 326 318 336 35 41 63 68 41 42 40 60 96 111 128 140 144
346 346 345 345 343 343 342 340 340 340 340 338 337 335 333 335 333 334 332 329 327 322 322 319 317 317 316 319 321 322 318 312 304 279 266 299 314 272 218 198 180 174 178 195 202 171 142 177 188 152 131 132 220 168 174 189 150 155 133 164 225 224 227 202 218 250 283 288 304 302 314 5 309 285 320 63 30 43 79 61 69 84 88 98 115 133 141 144
343 344 343 344 342 341 340 338 339 338 338 337 335 334 333 333 332 333 332 331 328 324 322 319 317 315 314 320 324 325 317 314 304 264 291 3 344 287 192 176 170 170 185 206 206 187 166 179 169 137 110 148 254 156 187 221 174 183 145 206 237 220 254 259 258 269 274 279 295 294 307 345 296 265 23 115 96 52 120 126 118 122 128 125 133 143 144 145
341 342 342 342 340 339 338 337 338 337 336 335 333 332 331 330 331 330 330 332 330 326 321 318 317 314 318 326 327 326 321 319 292 253 347 7 349 327 178 176 172 162 164 170 187 187 169 146 158 138 107 183 295 135 189 229 195 181 166 218 241 203 261 267 252 261 268 271 277 290 313 317 294 215 129 137 107 351 217 190 161 152 149 144 151 153 148 148
342 341 342 340 339 338 337 336 335 334 333 333 332 330 329 329 329 328 329 331 330 328 322 319 317 318 324 329 333 331 332 352 297 285 316 331 340 339 172 173 173 161 153 145 158 170 165 129 144 128 99 177 258 164 223 230 173 201 217 233 248 217 260 273 267 263 268 280 288 294 297 292 307 92 169 155 146 227 218 207 180 158 156 155 157 156 152 151
342 341 341 339 339 338 336 336 334 333 332 331 330 328 328 326 326 326 326 327 328 328 325 322 319 321 328 333 340 340 3 301 292 300 313 320 332 307 168 169 169 159 160 166 153 151 160 125 120 144 126 163 210 203 253 254 158 229 262 245 241 226 247 278 288 276 277 292 289 281 290 304 336 186 209 187 195 234 168 167 169 159 157 153 151 154 155 156
342 342 340 339 339 336 336 335 333 333 331 329 327 325 325 323 324 323 322 323 323 325 324 322 321 323 335 343 343 28 94 258 280 301 318 318 323 218 169 170 167 164 171 169 155 150 153 129 134 158 126 155 213 210 256 266 172 205 262 267 255 239 242 261 265 273 280 273 270 280 320 306 280 255 212 227 235 156 102 125 144 149 151 150 150 155 158 157
343 341 340 339 337 336 335 333 332 332 330 328 326 324 322 321 320 318 319 319 319 322 321 320 323 327 341 350 20 6 275 252 282 306 308 300 300 184 170 173 170 173 181 180 173 156 143 140 167 166 127 206 204 209 254 284 252 216 244 267 269 256 251 261 267 276 278 269 272 291 298 274 259 219 151 254 268 130 123 128 137 142 150 157 158 158 157 154
343 340 339 337 335 335 333 332 332 331 329 327 325 323 320 318 316 314 316 316 319 320 318 319 318 329 350 350 61 348 267 253 306 316 310 292 271 180 172 177 178 180 184 192 184 155 157 170 192 182 154 209 215 238 241 186 257 220 226 254 262 271 268 269 276 269 267 266 265 281 277 268 261 172 139 296 291 126 126 133 142 145 153 161 163 163 160 156
342 340 338 335 334 332 331 330 329 327 326 323 321 319 316 315 312 313 314 313 318 316 315 317 316 331 335 316 81 338 267 291 345 2 22 42 167 176 176 183 186 187 182 188 185 171 176 179 187 177 146 212 221 236 209 171 230 229 232 264 254 264 271 261 266 265 272 276 240 244 263 271 288 138 225 233 139 131 128 139 150 150 158 164 167 169 164 161
342 340 336 335 334 331 330 327 326 324 322 320 319 316 314 314 313 316 316 314 315 313 314 313 316 331 305 16 118 237 264 311 39 61 43 32 60 186 195 201 195 192 184 179 198 197 191 173 160 127 138 234 243 263 240 193 242 266 268 299 284 279 280 255 260 267 272 275 231 211 251 276 319 225 221 179 149 144 141 149 158 158 165 168 171 171 168 165
342 339 336 336 334 331 328 325 324 322 320 321 318 317 317 315 318 320 316 314 311 308 309 308 315 320 308 6 208 240 254 232 249 343 328 316 309 283 247 231 213 204 198 186 211 210 198 172 137 134 210 237 336 302 259 234 278 271 267 308 298 317 305 256 244 242 204 246 227 171 265 293 292 244 230 162 149 149 147 155 164 166 170 171 175 173 174 171
340 339 337 335 333 330 327 325 323 321 320 321 318 317 316 316 321 321 315 309 299 299 300 293 301 262 299 258 239 260 271 267 273 278 277 282 287 280 262 248 237 228 219 212 224 217 202 182 154 183 234 42 279 267 288 307 321 279 272 281 305 333 306 266 243 238 203 238 199 141 257 282 263 259 240 156 148 144 150 164 168 171 173 172 177 173 176 179
341 340 337 335 332 329 327 324 322 320 319 318 317 315 314 318 320 315 309 297 282 290 289 257 190 144 182 253 269 282 285 279 274 267 260 260 266 268 259 247 242 240 232 230 241 229 202 196 180 214 283 211 246 294 324 328 354 316 301 286 312 299 280 295 302 287 256 263 147 145 226 256 261 267 225 169 157 154 163 174 174 174 176 175 177 175 179 185
343 340 338 334 331 328 326 324 322 320 319 317 316 315 316 320 317 309 298 275 265 278 235 146 165 167 342 278 281 290 284 276 269 259 245 237 236 249 251 236 234 238 234 233 240 239 184 182 182 280 262 240 233 318 325 329 353 1 291 285 313 212 267 310 298 229 232 277 119 147 226 261 262 265 210 176 168 165 168 175 179 178 180 181 177 179 182 187
343 340 336 333 330 329 327 325 323 322 321 319 316 317 321 321 315 305 278 235 223 202 167 133 185 172 316 282 293 302 269 251 260 259 232 217 210 222 235 219 227 233 230 235 240 243 183 155 181 207 239 267 172 179 326 337 326 357 220 255 285 272 296 325 306 254 218 253 325 172 215 257 267 268 198 175 177 174 173 178 182 182 184 185 180 182 181 185
342 339 336 333 331 331 328 326 325 323 323 322 320 321 325 326 317 282 183 148 141 157 146 108 142 171 252 273 293 302 274 236 249 264 222 204 201 213 219 177 216 221 219 235 242 243 209 144 233 228 258 259 155 130 54 279 272 318 359 261 261 259 277 306 302 305 328 191 273 268 224 244 268 277 189 177 184 177 180 185 185 185 185 188 185 183 184 186
340 338 335 333 333 332 330 329 327 326 326 323 323 327 330 345 13 111 129 117 99 109 131 22 68 163 259 261 279 295 307 321 308 300 241 202 198 209 212 195 190 154 176 238 228 202 202 219 225 301 300 223 129 116 179 230 196 184 324 287 283 283 262 271 271 300 354 12 271 305 294 265 269 274 219 181 187 182 191 193 188 189 185 188 187 185 189 174
339 338 336 335 335 333 332 331 329 330 329 324 327 334 341 47 70 91 114 120 106 103 206 213 175 190 264 253 263 298 310 312 306 291 229 199 199 211 219 219 166 123 136 241 236 195 185 233 265 238 246 206 183 168 187 203 147 160 213 183 250 294 276 266 253 266 334 343 291 285 278 272 274 273 245 178 186 190 201 200 189 191 182 182 186 184 172 131
339 338 337 337 336 335 334 333 331 333 331 325 332 349 31 40 39 49 75 169 207 220 242 209 193 237 281 280 292 323 316 306 291 274 212 190 182 188 219 226 156 135 149 165 218 218 145 195 240 223 198 168 191 199 194 204 121 331 290 262 256 273 276 276 276 277 319 329 282 273 269 272 272 271 261 175 182 195 202 204 196 190 185 183 174 151 129 119
338 338 338 338 336 336 335 333 334 334 327 323 337 7 76 14 5 317 313 258 236 226 243 236 211 236 257 262 278 342 345 316 278 288 275 200 159 146 207 201 169 229 223 173 208 321 127 207 237 201 176 180 197 198 187 210 296 284 272 293 286 265 270 280 282 277 284 238 263 283 287 279 268 267 269 160 170 196 198 201 203 193 186 174 143 125 121 122
337 338 337 337 337 335 334 334 334 329 324 336 359 33 196 312 333 308 297 296 268 222 226 239 228 245 253 251 258 273 339 294 289 298 279 177 154 157 192 174 171 221 242 142 182 285 222 232 241 198 178 190 225 194 167 202 234 227 244 287 278 276 295 293 282 281 288 132 274 295 292 276 272 271 268 181 173 196 195 196 202 192 182 161 139 132 130 133
336 336 337 337 336 334 333 334 332 325 344 351 328 274 298 330 337 323 280 296 284 227 208 230 222 241 251 251 242 211 215 233 253 284 236 154 167 172 166 173 181 196 187 172 190 202 233 249 234 205 167 166 256 263 187 225 254 215 204 233 262 285 329 285 292 325 318 269 265 287 298 276 282 290 280 214 176 189 195 201 202 188 172 154 141 137 139 142
335 336 337 335 334 333 334 334 330 225 341 326 296 298 337 338 344 338 190 229 284 250 213 220 205 222 245 244 188 174 209 209 189 253 216 159 156 150 165 176 162 182 200 189 189 204 238 246 191 157 153 171 228 257 218 225 262 233 208 215 246 260 236 241 270 324 319 301 238 269 325 293 293 304 295 312 144 174 191 200 198 145 124 127 125 134 144 145
334 335 334 335 334 332 334 336 291 300 327 318 291 335 343 338 344 346 168 349 290 279 258 225 199 224 231 187 164 168 192 216 197 225 194 166 168 142 176 179 145 195 209 187 184 216 245 239 135 139 165 173 206 244 217 194 232 269 227 211 217 232 240 246 272 327 342 318 247 124 14 295 298 298 284 345 118 165 184 188 175 124 122 127 129 141 147 143
333 332 333 334 333 334 339 343 307 326 324 316 345 342 336 334 345 13 137 25 302 281 295 204 155 206 203 158 158 141 103 246 213 205 194 183 182 152 158 193 153 203 195 174 182 224 240 204 151 175 184 173 199 243 215 169 189 268 235 202 206 218 235 250 261 240 225 270 257 95 97 266 304 310 294 344 121 159 174 171 153 132 136 137 140 150 147 142
330 328 331 330 333 342 346 304 315 325 320 318 338 339 329 330 345 98 105 23 309 265 221 142 125 181 193 166 156 136 150 260 193 198 200 186 179 152 171 192 162 202 177 133 223 245 201 176 179 186 174 178 205 242 211 156 154 251 215 176 195 211 223 239 232 203 221 263 302 31 118 214 292 285 299 16 92 116 132 142 133 134 141 139 143 151 145 140
327 326 328 326 331 339 318 290 307 313 274 324 330 332 325 326 339 114 81 34 285 258 176 259 184 183 181 162 167 172 212 159 120 213 196 179 178 150 184 199 182 198 172 134 215 256 172 182 202 187 172 190 215 229 191 148 169 251 213 168 193 210 212 218 200 205 243 311 306 313 102 179 274 274 318 30 82 82 119 143 137 139 140 140 144 146 139 137
326 325 324 324 326 328 305 273 274 278 304 322 329 328 319 320 352 84 77 41 273 287 205 308 296 256 55 145 194 242 289 124 140 207 162 176 188 159 188 203 182 198 188 159 213 250 220 198 187 162 169 206 232 235 174 156 204 251 203 171 202 200 204 199 169 182 225 36 263 268 168 188 272 292 348 21 53 66 164 144 132 141 142 145 148 144 141 140
325 322 322 323 319 322 304 266 267 292 326 325 327 326 320 332 50 74 113 247 271 317 336 23 360 349 21 118 239 265 279 312 359 101 109 165 191 167 181 159 134 157 198 225 239 251 271 214 166 156 189 210 232 238 180 181 208 221 104 177 244 359 25 45 108 116 91 264 258 250 192 173 264 289 32 35 299 231 180 130 134 149 146 151 154 146 147 149
322 320 320 314 305 304 291 270 276 346 344 327 327 332 342 33 66 107 207 255 284 325 351 10 359 348 342 295 259 267 268 296 17 109 119 98 150 175 15 62 94 79 359 313 284 288 306 279 222 216 212 207 225 248 206 193 205 175 93 145 229 320 3 22 358 51 112 249 261 258 194 158 200 266 311 312 279 235 186 160 156 159 155 157 157 149 151 154
320 320 316 306 288 260 248 254 282 321 321 323 332 355 68 64 19 187 243 304 328 339 347 348 341 333 320 301 239 223 226 231 214 131 148 147 158 189 192 179 180 133 296 256 263 307 296 252 254 271 234 197 196 260 297 145 163 153 126 105 121 292 345 2 302 316 200 245 256 276 171 155 196 241 305 321 297 256 223 184 164 162 159 156 154 152 153 155
319 321 317 303 272 248 252 273 287 290 303 320 345 39 83 88 229 227 276 316 313 327 341 334 324 318 311 313 279 211 188 207 241 85 132 150 159 198 216 199 169 159 220 216 192 278 292 297 297 288 274 206 170 199 264 279 155 158 158 143 152 177 100 277 273 269 257 254 266 298 216 220 260 279 326 323 301 258 217 174 160 157 150 147 147 148 155 161
322 327 318 295 269 267 274 271 238 257 314 347 44 65 88 141 229 245 298 272 264 324 346 333 318 317 315 302 291 240 148 170 344 89 72 105 152 203 226 224 176 158 181 176 166 191 213 306 273 204 254 235 176 193 188 166 165 175 165 140 144 155 148 206 231 216 249 251 299 325 305 162 237 298 328 324 327 35 109 122 134 139 136 135 138 145 156 167
328 330 313 291 281 288 257 170 165 148 81 67 65 74 135 199 252 264 265 275 305 338 332 323 312 316 332 309 306 332 70 193 345 70 108 143 174 202 208 217 198 152 131 170 219 186 167 247 254 234 247 230 215 218 167 131 153 219 146 111 140 180 156 170 197 185 217 215 348 337 309 203 217 277 348 1 40 71 98 117 124 134 142 141 147 156 159 166
331 334 312 277 256 208 152 155 152 149 118 80 72 95 190 212 227 171 234 309 331 325 325 329 333 339 339 333 326 337 359 114 48 26 148 164 185 203 195 224 208 174 155 163 214 195 139 254 271 310 303 237 228 228 178 158 192 203 130 158 210 167 134 132 221 252 40 148 301 350 165 298 310 359 356 7 36 69 94 118 127 139 156 155 158 162 157 159
334 342 334 250 189 154 156 157 151 145 98 80 97 196 222 225 208 190 315 332 291 300 340 352 331 323 343 350 322 320 347 18 38 159 238 302 285 221 188 192 206 186 179 155 195 219 173 270 283 311 295 272 248 211 266 286 148 131 179 206 192 85 93 114 164 7 30 176 262 18 113 296 358 257 319 352 15 36 52 85 128 136 154 163 153 148 149 150
331 339 344 271 174 160 160 160 152 125 74 75 102 233 217 228 254 254 310 324 294 306 17 234 274 317 2 347 303 295 334 349 291 186 193 298 290 254 155 106 33 88 169 138 129 249 169 281 292 281 258 288 334 79 330 324 25 138 181 181 119 106 34 82 148 144 106 172 262 6 1 275 189 215 271 319 342 14 34 2 60 117 104 40 27 87 119 123
332 355 6 20 159 164 163 159 143 65 63 74 175 241 227 243 268 273 280 296 289 284 283 229 232 323 321 295 263 283 316 302 252 182 149 173 237 262 81 138 36 33 52 109 131 240 85 126 286 282 242 304 355 56 195 303 336 45 137 67 52 137 161 179 164 158 152 155 196 45 4 277 226 220 214 226 278 210 163 221 4 85 89 65 29 19 19 29
358 78 348 66 155 166 161 143 82 49 74 124 194 218 253 255 262 271 266 261 240 244 253 240 239 271 280 278 263 280 302 298 228 181 194 194 225 251 204 167 152 84 28 60 103 124 34 87 261 294 319 338 340 275 187 190 20 18 142 45 341 68 125 162 130 105 136 141 162 165 218 263 249 228 204 218 278 236 188 175 146 101 111 114 98 69 42 34
55 68 306 162 157 164 148 99 40 62 115 225 213 226 267 279 276 282 270 257 239 233 234 240 246 231 248 293 302 275 307 332 268 189 220 216 186 246 239 177 162 166 13 14 41 127 12 98 206 302 330 320 273 281 190 137 119 118 139 84 278 167 123 126 229 313 99 128 162 160 185 262 269 311 2 356 15 355 303 170 145 118 113 113 106 106 104 87
72 64 296 170 162 161 127 62 302 132 146 234 239 244 280 292 279 285 289 284 253 237 244 248 250 237 243 271 269 269 335 353 304 299 235 229 184 222 293 249 146 130 123 183 253 186 143 106 108 283 279 248 257 302 350 66 105 103 92 57 107 133 102 125 186 237 91 94 139 116 123 263 278 62 72 52 45 32 16 22 76 80 87 85 84 91 90 86
102 43 320 156 164 159 95 27 310 354 249 256 274 264 277 286 281 304 310 319 294 286 322 289 285 313 269 267 289 308 340 49 338 332 249 271 268 253 312 355 41 62 80 141 233 167 111 85 88 278 302 301 292 322 339 320 68 85 55 41 78 3 229 163 176 177 143 150 133 87 81 257 266 85 101 87 71 60 41 23 23 42 63 63 66 81 83 84
131 285 155 154 174 176 62 204 274 316 274 301 340 311 299 280 256 301 300 293 291 299 347 301 306 347 289 288 337 319 318 101 52 8 347 347 338 323 354 16 31 46 61 192 193 160 317 78 119 118 359 346 324 332 339 330 4 77 77 10 41 56 94 176 192 77 114 201 156 132 215 246 164 117 96 83 85 88 75 50 34 30 44 49 47 55 65 72
91 317 313 283 232 60 117 185 170 192 264 328 353 320 325 310 278 257 241 262 285 282 100 296 288 263 304 356 13 327 336 76 84 14 10 347 331 347 4 17 52 76 72 84 97 105 126 150 135 140 165 192 234 272 264 283 335 10 88 37 27 46 53 60 166 88 141 227 131 138 204 211 148 141 118 100 110 112 101 85 75 62 52 56 61 58 55 58
110 96 322 336 5 49 119 188 117 133 232 51 24 318 325 320 306 281 217 254 327 351 47 315 310 328 13 28 23 341 345 3 13 39 25 340 321 335 345 9 54 67 62 57 51 77 111 76 53 119 150 182 195 223 234 201 100 333 336 40 47 52 56 74 85 69 227 189 119 215 194 146 152 159 142 131 129 119 109 103 102 98 85 80 81 74 66 64
104 109 149 159 354 14 357 347 76 118 215 138 111 324 312 312 317 319 332 2 339 345 24 5 4 27 7 3 51 353 331 342 9 32 17 341 312 309 334 18 43 17 27 49 23 49 100 40 2 76 77 45 211 259 294 82 96 34 356 14 23 29 56 74 80 59 139 120 221 259 184 149 160 159 144 141 131 115 111 109 109 109 108 105 99 90 79 73
114 154 161 153 171 201 345 337 129 122 54 124 131 333 324 335 339 331 328 339 347 356 32 6 359 13 345 328 118 64 331 352 13 357 2 358 335 329 347 18 31 13 24 38 11 68 106 47 321 88 55 31 14 353 30 72 73 42 29 20 9 23 67 87 117 190 136 141 220 213 154 143 143 134 136 134 117 107 107 108 110 112 111 107 100 94 84 74
91 96 310 11 135 186 202 186 110 84 37 24 2 320 279 341 334 295 296 349 351 346 61 51 330 333 347 1 94 103 308 113 20 324 10 6 329 345 10 354 355 12 34 38 8 65 103 88 285 118 65 38 12 356 38 72 73 43 27 17 12 27 81 98 114 152 130 141 193 136 111 76 63 107 119 111 104 104 102 102 103 104 108 106 99 94 89 81
99 137 296 35 59 225 252 40 71 66 12 352 347 304 259 330 316 291 297 82 28 322 27 65 306 305 348 30 75 117 223 176 172 241 130 38 336 359 22 308 312 346 18 42 352 8 79 119 229 68 70 33 7 8 45 67 80 65 28 12 10 15 50 72 74 111 103 90 90 99 101 77 26 66 94 101 105 104 100 98 92 90 103 109 103 97 94 90
332 192 146 100 59 340 353 23 53 75 18 355 329 279 304 312 308 308 298 211 176 224 287 268 285 295 354 25 41 229 236 208 196 214 195 169 240 244 207 242 305 334 355 43 354 9 70 100 19 58 80 11 349 15 40 33 53 57 25 3 358 355 3 18 6 341 73 122 115 102 113 126 45 78 96 103 108 104 98 88 79 75 82 101 105 98 89 88
350 321 79 102 88 346 13 43 35 66 65 297 255 249 295 308 323 2 342 290 250 204 217 216 230 303 353 343 318 257 232 229 235 224 180 190 222 219 222 249 265 264 213 145 69 45 100 117 102 68 92 31 331 9 30 11 22 23 352 347 335 310 304 326 343 352 347 138 140 147 160 131 95 95 97 94 95 95 86 64 56 57 55 76 93 94 83 77
Height
802 801 800 798 797 796 795 794 793 792 791 789 788 788 787 786 785 784 783 782 781 780 780 779 778 777 776 776 775 774 772 769 766 767 765 753 748 750 751 752 752 754 756 757 758 759 761 762 763 764 766 767 768 768 769 769 770 774 782 789 790 785 779 772 767 765 762 757 753 750 749 753 750 743 738 737 742 745 747 747 745 742 741 743 745 748 752 757
802 801 800 798 797 796 795 794 792 791 790 789 788 787 787 786 785 784 783 782 781 780 779 778 777 777 776 775 774 773 771 768 766 763 756 748 747 749 750 751 751 753 754 756 757 758 760 762 762 764 765 767 768 767 769 768 769 775 782 788 785 778 771 763 761 759 757 757 754 751 749 752 750 745 741 745 752 749 750 752 750 749 748 748 749 752 755 756
802 801 799 798 797 796 795 793 792 791 790 789 788 787 786 785 784 784 782 781 780 780 779 778 777 776 775 774 773 772 770 767 763 756 749 747 747 746 748 751 751 753 754 755 756 758 759 760 762 764 766 768 768 768 769 768 769 772 778 785 777 769 766 760 759 758 755 754 754 752 748 749 747 743 742 748 754 753 752 752 752 754 752 752 753 754 756 757
801 800 799 798 797 796 794 793 792 791 790 789 788 787 786 785 784 783 782 781 780 779 778 777 776 775 774 773 773 772 770 766 757 749 747 747 746 745 747 749 751 753 755 755 756 758 759 760 762 763 766 769 769 768 769 767 768 770 774 777 768 764 764 758 757 756 752 752 753 752 750 748 743 740 744 748 753 756 754 747 744 748 749 751 753 754 755 757
801 800 798 797 796 795 794 793 792 791 790 789 788 787 786 785 784 783 782 781 780 779 777 776 775 774 773 772 772 771 771 766 752 746 747 747 746 746 746 749 751 753 754 756 757 758 760 761 762 764 767 769 769 769 769 765 765 770 769 766 763 764 763 755 754 754 750 750 751 752 750 745 741 741 745 746 748 749 745 740 739 740 742 745 748 752 754 756
801 799 798 797 795 794 793 792 791 790 789 788 788 787 786 785 784 783 782 781 780 779 777 776 775 774 773 772 772 771 772 765 750 746 747 746 747 746 747 749 751 753 754 756 756 758 760 761 763 766 768 769 770 770 768 764 764 770 767 761 761 762 760 755 753 752 750 752 751 750 747 742 744 746 745 744 741 738 735 736 739 740 740 742 745 749 753 755
800 799 798 797 795 794 793 792 791 790 789 788 788 786 786 784 784 783 782 781 780 779 778 776 775 774 772 772 772 771 773 763 748 747 747 746 747 746 747 749 751 753 753 755 756 758 759 761 764 765 768 769 770 768 766 763 763 769 767 760 759 759 757 754 752 750 750 752 749 746 746 744 746 747 745 743 738 735 735 737 741 743 744 747 749 750 752 754
800 799 797 796 795 794 793 792 791 790 789 788 787 786 785 784 783 782 781 781 779 779 778 776 775 774 773 772 771 771 770 758 746 747 746 745 747 746 748 749 751 752 752 754 754 756 759 762 763 763 768 769 767 767 764 765 766 767 765 759 757 756 754 751 751 751 749 749 746 746 748 744 742 744 745 744 739 736 736 739 742 745 747 750 752 752 753 754
799 798 797 796 795 794 792 791 790 789 788 787 787 786 785 783 783 782 781 780 779 778 777 776 775 774 774 773 772 770 759 749 746 746 745 745 746 747 748 748 750 751 752 754 754 757 758 760 761 761 765 765 764 765 763 768 769 762 760 759 757 755 752 750 751 749 748 747 745 747 746 740 737 741 745 744 742 739 738 741 744 746 749 752 753 754 753 755
799 797 797 795 794 793 792 791 790 789 788 787 786 785 784 783 782 780 779 779 778 778 777 776 775 774 774 772 773 769 752 746 748 746 745 746 746 748 748 748 750 750 752 754 754 755 755 757 758 757 761 762 762 763 762 766 764 756 757 757 755 755 751 750 750 747 746 745 744 747 745 738 736 741 746 744 741 740 741 745 745 747 750 751 753 754 754 755
798 797 796 795 794 793 791 790 789 788 787 785 784 783 782 781 780 779 778 778 777 777 776 776 775 775 774 772 774 766 749 746 748 745 746 746 747 749 749 750 750 750 751 753 753 752 753 755 755 757 761 761 760 761 759 758 756 754 755 755 753 753 751 749 749 747 746 745 740 743 743 738 739 741 741 740 740 740 743 747 748 749 751 752 754 755 755 755
798 797 795 794 793 792 791 790 788 787 785 784 783 781 780 779 779 778 777 777 776 776 776 775 775 774 774 774 769 757 746 747 747 746 747 746 748 749 749 750 750 750 750 751 751 750 753 754 754 758 760 759 762 763 757 753 754 753 754 757 755 751 750 748 746 744 745 744 736 740 748 746 743 740 735 736 739 741 744 747 748 750 751 753 755 756 756 755
797 796 795 794 792 791 790 789 787 786 784 783 781 780 779 777 777 776 775 775 774 775 775 774 774 774 776 769 755 746 745 747 747 746 746 746 747 747 748 749 749 751 750 750 749 749 753 754 755 757 757 759 763 760 753 751 754 754 754 758 759 758 753 745 744 742 743 742 734 742 758 754 742 736 735 737 738 742 747 748 748 750 752 754 755 756 757 756
797 796 794 793 791 790 789 787 786 784 783 781 779 778 777 776 776 774 774 773 773 774 773 774 774 775 776 762 744 743 745 744 744 743 744 745 746 746 746 748 748 749 750 750 749 750 753 754 755 756 756 758 758 755 756 757 756 756 758 759 764 768 758 745 744 744 743 740 732 742 759 755 740 734 735 737 737 741 747 748 748 750 751 753 754 756 757 756
796 795 794 792 791 789 788 786 785 783 781 780 778 776 775 774 773 771 772 771 772 773 772 774 774 775 776 759 742 742 742 742 741 740 742 744 744 744 744 745 747 747 749 750 750 751 752 754 757 758 757 755 756 760 764 763 759 760 765 765 767 770 761 748 744 743 744 740 735 744 757 753 741 734 735 736 737 739 744 747 748 749 751 752 753 755 756 756
795 794 792 791 789 788 786 785 783 781 780 778 776 774 773 771 770 769 769 769 771 772 772 774 773 775 774 755 741 740 740 739 738 737 740 741 742 742 742 744 746 747 749 749 750 751 752 754 756 756 756 756 759 763 767 769 765 765 771 771 769 770 766 756 746 741 742 741 739 743 751 750 739 733 734 737 737 740 743 746 746 748 750 750 752 753 755 755
794 793 791 790 788 786 785 783 781 780 778 776 774 772 771 769 767 767 768 770 771 771 772 773 773 776 765 746 740 740 737 737 736 737 737 738 739 740 742 745 745 746 748 749 750 751 752 754 755 756 756 758 760 762 772 778 775 773 774 773 772 770 767 762 752 743 741 743 743 743 746 746 737 731 736 738 737 740 743 744 745 746 749 749 750 752 753 754
793 791 790 788 786 785 783 781 780 778 776 774 772 771 769 768 767 767 768 769 771 772 773 773 774 773 756 741 742 740 736 737 736 737 737 737 739 739 741 743 744 746 749 751 751 752 753 754 756 759 759 760 761 764 775 779 775 775 775 773 773 769 766 764 758 747 742 745 746 746 747 744 737 733 737 739 737 741 742 741 742 743 747 749 749 751 752 754
792 790 788 787 785 783 781 780 778 777 775 772 771 770 768 768 768 768 769 770 770 769 767 767 768 761 747 740 740 738 737 737 735 735 735 736 738 740 741 742 744 747 751 754 754 752 753 756 759 763 763 763 764 765 769 769 768 770 772 774 775 773 768 761 758 750 744 748 748 747 747 742 737 732 734 738 737 739 740 739 741 743 745 748 750 752 753 758
790 789 787 785 783 782 780 779 777 776 774 772 771 768 768 770 769 768 770 770 766 760 756 758 758 752 744 739 738 739 737 735 735 733 734 735 736 740 743 743 746 748 752 755 755 751 752 759 763 763 764 763 763 762 762 764 766 768 770 772 773 774 769 758 756 749 743 750 748 742 743 740 736 730 729 735 737 739 740 740 742 743 745 747 750 753 755 759
789 787 785 784 782 781 779 778 777 775 774 773 771 769 770 772 773 772 769 764 757 754 753 752 752 749 741 737 737 740 740 737 734 732 733 735 735 741 745 745 750 754 754 753 753 752 754 761 762 760 761 759 758 760 762 765 766 768 770 771 773 774 767 756 755 749 742 750 748 740 744 741 734 728 726 732 737 738 737 738 740 740 742 746 750 754 756 760
788 786 784 783 781 780 778 777 776 774 773 773 772 772 772 772 773 773 770 765 753 748 750 746 747 745 735 735 737 741 746 744 738 731 731 734 735 741 745 746 753 755 753 753 756 759 760 761 758 756 756 756 758 761 763 766 766 769 771 774 774 770 764 756 751 746 742 749 748 742 746 741 730 725 725 728 731 731 730 729 731 734 739 745 749 753 756 759
787 785 783 781 780 778 777 775 774 773 773 773 772 772 771 770 770 769 771 770 753 741 742 742 743 742 733 733 736 740 746 745 742 734 728 733 735 738 743 747 752 753 754 756 759 765 765 758 752 753 755 757 760 761 764 767 768 771 772 775 774 768 769 764 752 747 744 748 748 745 748 741 729 724 721 723 725 724 726 724 724 728 734 741 746 750 753 755
786 784 782 780 779 777 775 774 772 772 772 772 771 769 769 768 768 768 767 767 754 738 735 733 734 735 728 727 731 737 740 738 738 733 726 731 735 737 741 745 751 754 754 754 757 762 760 751 747 751 755 757 760 761 764 769 770 772 770 771 772 767 768 765 756 752 748 748 746 746 751 741 729 726 720 720 724 722 724 725 727 732 735 740 747 751 752 752
784 783 781 779 778 775 774 773 771 772 771 770 769 767 767 767 766 766 766 766 757 740 731 728 729 727 721 724 728 730 734 733 730 727 723 727 731 736 739 741 747 754 754 753 757 760 755 748 746 751 755 758 760 761 763 767 770 771 765 763 764 762 762 760 758 760 761 758 747 746 760 750 730 726 724 724 726 723 725 727 731 737 738 742 749 751 752 753
783 782 780 778 777 773 772 772 772 772 770 768 768 766 766 765 764 764 766 772 763 741 730 729 728 723 718 724 726 727 736 732 721 721 722 724 725 730 739 741 742 748 750 751 756 756 749 744 744 749 753 757 761 762 759 762 771 771 758 752 755 756 758 758 759 764 766 762 748 746 762 759 737 726 728 731 727 725 729 730 734 739 740 743 747 749 750 752
782 781 779 778 776 774 774 772 772 771 769 767 766 765 764 763 764 762 766 778 765 737 729 731 728 722 717 720 721 727 735 725 716 719 719 721 724 726 737 743 742 744 743 748 757 751 742 744 746 748 752 757 761 760 755 756 767 764 747 745 750 752 756 756 758 763 759 753 750 748 753 759 749 731 729 737 735 734 736 736 739 741 742 744 746 747 748 750
781 780 778 777 775 776 776 774 773 770 768 766 764 765 762 761 763 761 771 780 755 727 726 727 722 717 716 719 719 720 721 716 719 721 714 719 723 725 737 741 739 741 737 746 758 747 738 743 746 747 753 758 754 749 747 752 758 748 736 741 745 746 751 752 755 760 756 754 755 751 751 760 754 732 727 735 739 744 743 740 743 742 742 744 745 747 747 749
780 778 777 776 774 775 774 774 772 768 766 765 764 763 760 761 760 763 780 778 743 722 722 721 720 719 719 723 723 718 715 714 718 718 714 720 721 723 734 735 734 739 737 741 749 742 737 737 737 743 750 751 743 738 741 748 748 735 733 741 742 745 749 750 755 755 756 761 758 750 751 759 753 733 733 740 741 748 748 743 745 744 743 744 744 746 748 750
778 777 775 774 773 773 773 772 768 766 765 764 763 762 759 761 763 773 786 769 740 728 723 721 726 725 725 729 728 723 720 717 714 715 718 721 721 722 727 728 731 739 741 741 742 739 735 733 733 737 740 737 733 733 736 739 736 731 736 742 744 749 748 750 756 753 759 767 755 744 746 755 755 743 746 753 746 746 748 746 748 745 744 745 744 746 748 750
776 774 773 772 772 771 772 770 765 764 765 763 762 761 759 764 772 782 778 754 740 737 730 730 732 728 729 733 731 725 723 721 716 719 724 724 727 729 730 733 736 742 747 746 743 740 736 736 735 730 727 728 729 731 732 732 732 735 740 744 750 755 751 755 760 757 768 770 747 740 746 752 756 750 752 756 748 744 743 742 744 744 743 744 744 746 747 749
773 772 771 770 769 769 769 766 764 764 764 763 763 761 763 771 778 779 764 746 746 746 741 740 737 733 733 731 729 725 723 723 718 720 726 727 732 734 733 737 740 747 755 752 748 744 738 735 733 726 721 723 729 734 734 732 735 741 744 748 757 763 762 764 766 766 772 762 744 745 749 750 754 754 755 755 748 742 738 736 738 739 741 742 743 746 747 749
770 769 767 766 765 765 765 763 764 764 763 763 764 763 768 775 775 770 762 754 753 749 745 743 740 737 734 730 726 721 721 726 721 721 725 726 732 735 732 733 734 741 750 753 752 749 743 736 730 728 724 718 724 735 737 736 738 742 742 745 756 766 773 775 774 775 771 754 745 748 747 747 752 754 756 754 746 739 735 737 738 737 739 741 743 746 748 751
767 766 764 764 763 762 762 763 763 764 763 764 765 767 772 775 771 765 764 761 753 747 746 746 743 737 733 731 726 720 724 729 724 723 727 729 735 738 736 735 734 735 741 749 753 750 751 745 731 726 724 717 719 724 725 726 732 735 734 737 746 754 763 770 767 765 761 750 748 749 750 755 757 754 753 750 744 738 736 739 741 741 742 743 745 748 749 751
765 764 762 762 761 761 761 762 763 763 764 764 767 772 773 771 769 768 766 761 755 752 750 747 745 740 735 732 727 721 722 727 727 726 727 731 736 737 735 733 732 733 738 749 752 748 752 747 726 719 719 716 717 715 712 718 728 735 734 735 741 738 742 757 761 760 758 753 756 760 760 762 759 752 750 747 743 741 741 742 743 745 746 745 747 748 749 751
764 762 761 760 760 761 761 761 763 763 764 765 769 773 772 768 768 768 764 760 759 758 755 750 745 744 742 737 731 725 719 723 730 731 730 731 732 732 732 729 728 729 732 741 748 747 750 743 724 719 719 713 713 711 710 716 725 735 737 733 732 728 730 747 762 767 764 759 764 771 768 762 759 754 750 750 749 747 747 747 746 747 748 747 748 748 750 752
762 760 760 759 760 761 761 762 763 763 764 767 769 772 774 770 767 765 761 759 760 758 759 760 751 746 748 745 739 731 724 725 730 733 734 734 732 730 729 726 725 726 724 730 740 742 746 742 727 722 722 712 708 710 709 710 715 727 732 726 727 732 734 742 756 766 766 762 766 773 772 768 767 765 760 757 757 754 753 752 750 749 750 751 751 750 750 751
761 760 759 759 760 761 762 762 763 764 764 768 772 775 775 770 763 762 760 759 760 758 761 764 755 746 750 752 745 735 730 732 733 734 735 737 735 729 728 727 724 724 722 723 733 737 741 744 731 723 725 716 708 713 716 713 711 716 719 718 724 737 742 745 753 760 763 768 772 774 775 774 770 770 766 762 762 759 757 757 755 752 753 755 756 754 753 754
761 760 759 760 760 761 762 763 764 765 766 770 775 774 771 768 762 760 759 759 760 759 760 761 755 750 751 751 746 737 733 735 736 736 736 738 735 728 728 729 726 726 726 724 731 735 738 746 739 724 722 721 715 719 726 724 716 713 715 719 723 731 738 743 748 750 753 766 777 776 774 770 765 766 765 761 762 760 758 760 759 756 755 756 759 761 761 761
762 761 761 760 761 762 763 764 765 768 769 772 776 772 768 767 762 758 757 757 757 757 757 757 755 755 751 747 743 738 735 736 737 737 736 737 736 729 726 727 727 728 727 726 731 734 737 746 746 731 722 725 726 725 729 729 725 723 724 728 731 733 735 740 746 749 748 755 768 774 773 767 761 762 764 762 762 760 758 759 759 758 758 756 758 762 766 767
762 763 763 761 761 762 764 766 769 771 772 774 775 772 768 765 762 758 755 754 754 752 752 752 753 754 751 745 742 739 737 737 737 737 736 735 736 731 724 724 726 726 727 730 731 733 737 744 748 742 733 733 733 728 727 728 728 732 735 739 743 740 737 741 750 754 750 751 759 763 765 766 763 762 763 764 763 761 760 759 758 760 760 758 757 759 764 766
763 765 764 762 762 762 764 769 773 774 773 772 771 769 766 763 761 759 755 753 752 750 749 750 750 750 748 745 742 739 738 738 737 738 738 736 735 732 726 724 724 724 728 734 733 731 736 742 747 746 741 740 736 729 728 728 727 731 737 744 747 743 738 739 744 749 751 757 762 759 758 763 765 763 763 765 765 764 764 763 763 763 762 761 761 761 765 767
764 765 763 763 763 763 766 771 773 773 772 769 768 766 764 763 760 759 756 754 754 751 750 750 749 748 746 745 743 741 740 739 738 739 739 736 733 731 728 725 725 725 728 734 734 731 736 743 746 745 743 740 734 728 727 728 727 729 737 744 745 745 746 743 738 739 745 753 757 757 760 765 765 765 764 764 764 766 768 769 770 768 765 765 766 767 768 770
767 767 764 764 764 765 769 772 772 773 771 770 769 766 764 763 761 760 759 757 755 753 753 752 750 749 747 745 745 745 742 739 739 739 740 738 734 729 728 726 726 728 730 733 733 732 740 749 747 749 754 752 746 740 733 729 732 736 741 744 744 745 746 744 742 739 742 751 750 748 758 766 765 765 766 765 766 768 771 774 776 775 773 772 773 772 772 772
768 767 766 765 764 765 769 771 772 773 773 773 772 769 767 764 760 759 760 758 755 754 755 753 750 749 749 747 746 746 743 740 739 740 741 741 735 731 730 728 728 730 731 732 731 732 743 752 749 748 757 761 759 753 746 743 744 745 744 742 742 743 740 740 744 741 742 751 750 745 755 766 766 767 768 768 769 770 774 778 779 780 780 779 778 778 778 778
766 766 768 767 766 767 769 771 772 772 772 774 773 770 770 768 762 759 758 757 755 754 755 755 752 751 751 749 747 748 747 743 741 743 745 744 740 736 734 731 730 732 731 731 732 734 743 754 755 751 752 756 757 753 752 751 748 747 746 741 741 745 742 741 746 747 750 755 754 752 757 763 765 767 769 769 770 772 777 780 780 781 783 784 782 782 782 782
764 766 768 769 769 770 770 771 771 771 772 773 771 770 771 770 767 761 758 757 757 756 755 756 756 755 755 753 750 750 751 747 745 747 749 749 745 740 736 734 733 733 732 732 734 737 744 754 760 759 756 758 758 754 752 752 751 753 754 749 747 746 741 740 747 756 759 756 753 757 760 760 762 766 768 770 771 774 779 782 782 783 786 785 783 783 784 784
765 766 768 768 769 772 771 770 771 771 771 772 771 771 770 770 769 766 762 759 758 757 757 758 759 759 759 757 753 752 753 750 749 751 751 753 753 746 740 738 737 735 735 736 738 740 748 758 762 760 760 762 762 756 754 756 759 764 764 759 756 750 743 745 755 765 764 755 752 759 762 762 764 766 770 772 774 778 782 784 786 787 787 786 784 784 786 786
766 767 769 768 768 770 771 772 772 771 771 771 771 770 770 770 769 767 764 762 761 760 760 762 763 760 759 758 755 757 757 752 752 755 756 759 760 755 748 744 742 739 738 740 744 745 751 761 764 760 759 765 766 760 757 759 760 765 769 768 764 759 755 757 764 768 765 759 760 762 764 767 769 769 771 774 777 782 785 787 789 790 789 788 787 788 789 789
766 767 769 769 769 771 772 772 772 770 771 773 771 769 769 769 768 767 764 764 765 763 762 764 764 761 760 759 757 758 758 755 755 758 759 762 761 757 756 752 748 745 742 744 748 746 749 759 765 761 760 768 772 765 761 762 761 762 768 770 767 764 761 761 765 767 764 763 766 766 765 772 776 775 775 778 781 785 788 790 792 793 793 792 791 791 792 792
767 767 769 769 771 775 774 772 775 773 771 774 773 769 768 768 768 768 764 762 764 764 763 764 764 761 760 760 758 757 757 756 756 756 758 761 759 757 758 755 751 750 748 748 750 748 748 759 766 762 761 772 777 771 765 765 762 760 766 775 778 775 770 767 769 770 765 764 768 769 769 775 782 781 780 782 785 787 791 794 795 796 797 795 794 794 795 796
767 768 769 768 772 779 777 775 779 777 774 776 776 771 769 768 769 770 767 762 761 761 761 762 763 761 759 758 757 755 754 752 751 753 757 757 755 754 756 754 752 752 750 749 753 754 752 757 763 761 763 775 780 774 769 768 765 766 775 787 790 786 779 775 774 773 770 766 766 768 771 779 784 783 784 789 791 793 797 799 799 800 800 799 798 799 799 800